TimeMST,TemperatureF,Dew PointF,Humidity,Sea Level PressureIn,VisibilityMPH,Wind Direction,Wind SpeedMPH,Gust SpeedMPH,PrecipitationIn,Events,Conditions,WindDirDegrees,DateUTC
12:51 AM,46.9,15.1,28,29.95,10.0,East,8.1,-,N/A,,Clear,80,2012-10-28 07:51:00
1:51 AM,46.9,15.1,28,29.94,10.0,ESE,9.2,-,N/A,,Clear,110,2012-10-28 08:51:00
2:51 AM,46.0,15.1,29,29.94,10.0,East,6.9,-,N/A,,Clear,100,2012-10-28 09:51:00
3:51 AM,43.0,15.1,32,29.93,10.0,ESE,3.5,-,N/A,,Clear,120,2012-10-28 10:51:00
4:51 AM,39.9,15.1,36,29.95,10.0,Calm,Calm,-,N/A,,Clear,0,2012-10-28 11:51:00
5:51 AM,41.0,16.0,36,29.97,10.0,SE,4.6,-,N/A,,Clear,130,2012-10-28 12:51:00
6:51 AM,39.0,15.1,38,30.00,10.0,Calm,Calm,-,N/A,,Clear,0,2012-10-28 13:51:00
7:51 AM,50.0,16.0,26,30.01,10.0,East,3.5,-,N/A,,Clear,100,2012-10-28 14:51:00
8:51 AM,62.1,14.0,15,29.99,10.0,Calm,Calm,-,N/A,,Clear,0,2012-10-28 15:51:00
9:51 AM,64.0,15.1,15,29.99,10.0,NNW,4.6,-,N/A,,Clear,340,2012-10-28 16:51:00
10:51 AM,69.1,14.0,12,29.98,10.0,North,4.6,-,N/A,,Clear,10,2012-10-28 17:51:00
11:51 AM,73.0,14.0,11,29.97,10.0,NNE,4.6,-,N/A,,Clear,20,2012-10-28 18:51:00
12:51 PM,75.0,14.0,10,29.94,10.0,NW,5.8,-,N/A,,Clear,320,2012-10-28 19:51:00
1:51 PM,78.1,12.0,8,29.92,10.0,NW,5.8,-,N/A,,Clear,310,2012-10-28 20:51:00
2:51 PM,79.0,12.0,8,29.90,10.0,Variable,3.5,-,N/A,,Clear,0,2012-10-28 21:51:00
3:51 PM,79.0,10.0,7,29.91,10.0,WSW,12.7,-,N/A,,Clear,240,2012-10-28 22:51:00
4:51 PM,77.0,10.9,8,29.92,10.0,SW,10.4,-,N/A,,Clear,220,2012-10-28 23:51:00
5:51 PM,71.1,12.9,11,29.94,10.0,Calm,Calm,-,N/A,,Clear,0,2012-10-29 00:51:00
6:51 PM,62.1,12.9,15,29.98,10.0,Calm,Calm,-,N/A,,Clear,0,2012-10-29 01:51:00
7:51 PM,54.0,15.1,22,29.99,10.0,NNE,3.5,-,N/A,,Clear,30,2012-10-29 02:51:00
8:51 PM,53.1,15.1,22,29.98,10.0,SE,6.9,-,N/A,,Clear,140,2012-10-29 03:51:00
9:51 PM,53.1,15.1,22,29.99,10.0,Calm,Calm,-,N/A,,Clear,0,2012-10-29 04:51:00
10:51 PM,50.0,15.1,25,29.98,10.0,SSW,3.5,-,N/A,,Clear,210,2012-10-29 05:51:00
11:51 PM,46.9,15.1,28,29.99,10.0,Calm,Calm,-,N/A,,Clear,0,2012-10-29 06:51:00